"2016-02-14 00:00:00",1372251,12.3,303.2,2.026,0.29,13.91,104.828,11.63,12.67,15.15,0,110.5,13.11,12.42,265.2
"2016-02-14 00:00:30",1372252,11.98,313,8.57,1.31,15.37,104.8162,11.6,12.71,15.42,0,110.5,13.11,12.39,275.0
"2016-02-14 00:01:00",1372253,12.78,311.4,6.858,1.481,16.81,104.8035,11.57,12.78,15.39,0,110.5,13.12,12.36,273.4
"2016-02-14 00:01:30",1372254,12.59,308,7.317,1.615,16.5,104.8038,11.57,12.77,15.15,0,110.5,13.12,12.36,270.0
"2016-02-14 00:02:00",1372255,12.01,313.4,7.342,1.38,17.32,104.8038,11.57,12.74,15.21,0,110.5,13.12,12.36,275.4
"2016-02-14 00:02:30",1372256,11.06,314.1,7.586,1.504,15.58,104.8004,11.56,12.71,15.15,0,110.5,13.12,12.35,276.1
"2016-02-14 00:03:00",1372257,11.14,313.7,5.837,1.092,15.34,104.788,11.53,12.6,15.19,0,110.5,13.12,12.32,275.7
"2016-02-14 00:03:30",1372258,11.5,311.9,7.208,1.038,15.22,104.7725,11.49,12.64,15.29,0,110.5,13.12,12.28,273.9
"2016-02-14 00:04:00",1372259,10.65,306.2,6.438,1.473,15.62,104.77,11.48,12.65,15.09,0,110.5,13.12,12.28,268.2
"2016-02-14 00:04:30",1372260,10.78,310.4,7.799,1.453,16.6,104.77,11.48,12.72,15.17,0,110.5,13.12,12.28,272.4
"2016-02-14 00:05:00",1372261,10.63,316.7,7.606,1.454,16.87,104.77,11.48,12.71,15.36,0,110.5,13.12,12.28,278.7
"2016-02-14 00:05:30",1372262,10.95,311.8,8.45,1.925,16.68,104.7671,11.48,12.67,15.31,0,110.5,13.12,12.27,273.8
"2016-02-14 00:06:00",1372263,11.19,307.8,5.903,1.184,14.95,104.7544,11.44,12.59,15.16,0,110.4,13.12,12.24,269.8
"2016-02-14 00:06:30",1372264,10.96,305.9,6.836,1.207,14.76,104.7395,11.41,12.49,15.07,0,110.4,13.12,12.20,267.9
"2016-02-14 00:07:00",1372265,11.12,306.2,8.27,1.278,15.63,104.7361,11.4,12.62,15.19,0,110.4,13.12,12.19,268.2
"2016-02-14 00:07:30",1372266,12.53,311.1,6.954,1.333,17.76,104.7361,11.4,12.65,15.26,0,110.4,13.11,12.19,273.1
"2016-02-14 00:08:00",1372267,11.51,304.3,5.903,1.372,15.68,104.7361,11.4,12.56,15.27,0,110.4,13.11,12.19,266.3
"2016-02-14 00:08:30",1372268,11.4,306.8,7.721,1.428,16.55,104.7367,11.4,12.62,15.41,0,110.4,13.11,12.19,268.8
"2016-02-14 00:09:00",1372269,10.62,306.5,6.922,1.46,15.27,104.7317,11.39,12.54,15.36,0,110.4,13.12,12.18,268.5
"2016-02-14 00:09:30",1372270,9.66,302.1,1.004,0.35,13.7,104.7319,11.39,12.4,15.31,0,110.4,13.16,12.18,264.1
"2016-02-14 00:10:00",1372271,11.62,306.4,6.941,1.528,16.15,104.7148,11.34,12.59,15.6,0,110.4,13.12,12.13,268.4
"2016-02-14 00:10:30",1372272,12.26,308.2,8.17,2.107,16.66,104.715,11.34,12.55,15.41,0,110.4,13.12,12.13,270.2
"2016-02-14 00:11:00",1372273,12.25,310.6,6.319,1.605,16.94,104.7129,11.34,12.56,15.34,0,110.4,13.12,12.13,272.6
"2016-02-14 00:11:30",1372274,11.96,303.4,8.65,1.684,16.7,104.7165,11.35,12.59,15.27,0,110.4,13.12,12.14,265.4
"2016-02-14 00:12:00",1372275,13.63,305.3,8.89,1.684,15.77,104.7148,11.34,12.45,15.35,0,110.4,13.12,12.13,267.3
"2016-02-14 00:12:30",1372276,12.61,301.4,2.085,0.688,13.77,104.7111,11.33,12.4,15.27,0,110.4,13.17,12.12,263.4
"2016-02-14 00:13:00",1372277,14.3,309.4,7.064,1.315,16.24,104.7033,11.31,12.45,15.34,0,110.4,13.13,12.10,271.4
"2016-02-14 00:13:30",1372278,13.97,308.4,9,1.493,16.6,104.6915,11.28,12.57,15.5,0,110.4,13.13,12.07,270.4
"2016-02-14 00:14:00",1372279,12.25,303.6,7.674,1.615,16.01,104.6944,11.29,12.44,15.49,0,110.4,13.13,12.08,265.6
"2016-02-14 00:14:30",1372280,12.13,293.3,9.22,1.752,17.27,104.6962,11.29,12.47,15.87,0,110.4,13.13,12.09,255.3
"2016-02-14 00:15:00",1372281,12.36,289.6,7.884,1.431,15.29,104.6989,11.3,12.44,15.68,0,110.4,13.13,12.09,251.6
"2016-02-14 00:15:30",1372282,10.66,285.6,5.196,0.798,13.64,104.6957,11.29,12.27,15.39,0,110.4,13.18,12.09,247.6
"2016-02-14 00:16:00",1372283,9.75,287.4,6.767,1.325,14.91,104.6827,11.26,12.39,15.76,0,110.4,13.13,12.05,249.4
"2016-02-14 00:16:30",1372284,10.88,297.6,10.7,1.438,16.05,104.67,11.23,12.46,15.98,0,110.4,13.13,12.02,259.6
"2016-02-14 00:17:00",1372285,12,308,9.13,1.209,16.35,104.67,11.23,12.44,15.76,0,110.4,13.13,12.02,270.0
"2016-02-14 00:17:30",1372286,11.04,292.6,15.08,1.663,16.42,104.67,11.23,12.37,15.7,0,110.4,13.13,12.02,254.6
"2016-02-14 00:18:00",1372287,10.53,306.2,8.68,1.525,15.48,104.6695,11.23,12.32,15.8,0,110.4,13.13,12.02,268.2
"2016-02-14 00:18:30",1372288,12.55,303.4,6.097,1.525,14.94,104.6624,11.21,12.29,15.79,0,110.4,13.13,12.00,265.4
"2016-02-14 00:19:00",1372289,12.91,298.5,6.951,1.306,15.66,104.6435,11.16,12.32,15.8,0,110.4,13.13,11.95,260.5
"2016-02-14 00:19:30",1372290,11.72,300.2,6.23,1.513,16.66,104.6362,11.14,12.35,15.94,0,110.4,13.14,11.93,262.2
"2016-02-14 00:20:00",1372291,11.88,296.5,10.09,1.423,15.95,104.6362,11.14,12.35,15.97,0,110.4,13.14,11.93,258.5
"2016-02-14 00:20:30",1372292,12.48,303.7,9.44,1.758,16.48,104.6362,11.14,12.31,16.06,0,110.4,13.14,11.93,265.7
"2016-02-14 00:21:00",1372293,13.33,299,6.442,2.473,15.1,104.6311,11.13,12.26,16.2,0,110.4,13.14,11.92,261.0
"2016-02-14 00:21:30",1372294,13.75,300.2,6.24,1.43,14.71,104.6193,11.1,12.21,16.08,0,110.4,13.14,11.89,262.2
"2016-02-14 00:22:00",1372295,13.63,305.6,7.505,1.49,15.61,104.6046,11.06,12.27,16.16,0,110.4,13.14,11.85,267.6
"2016-02-14 00:22:30",1372296,14.75,300.8,11.87,1.615,16.03,104.6024,11.05,12.29,16.46,0,110.4,13.14,11.85,262.8
"2016-02-14 00:23:00",1372297,15.77,307.9,7.256,1.775,16.69,104.6027,11.06,12.29,16.29,0,110.4,13.14,11.85,269.9
"2016-02-14 00:23:30",1372298,12.79,300.3,7.151,1.553,16.64,104.5962,11.04,12.28,16.35,0,110.3,13.14,11.83,262.3
"2016-02-14 00:24:00",1372299,12.45,301.5,6.258,1.281,14.99,104.5897,11.02,12.18,16.3,0,110.3,13.13,11.81,263.5
"2016-02-14 00:24:30",1372300,11.56,300.3,9.14,1.351,14.69,104.5806,11,12.1,16.29,0,110.3,13.13,11.79,262.3
"2016-02-14 00:25:00",1372301,12.38,292.3,6.79,1.531,14.78,104.573,10.98,12.14,16.57,0,110.3,13.14,11.77,254.3
"2016-02-14 00:25:30",1372302,16.09,302.6,7.86,1.63,16.38,104.5732,10.98,12.19,16.59,0,110.3,13.13,11.77,264.6
"2016-02-14 00:26:00",1372303,15.47,304,6.944,2.347,16.31,104.5747,10.98,12.21,16.38,0,110.4,13.14,11.77,266.0
"2016-02-14 00:26:30",1372304,16.55,307.6,7.444,1.939,16.95,104.5783,10.99,12.22,16.6,0,110.4,13.14,11.78,269.6
"2016-02-14 00:27:00",1372305,15.05,306.1,7.278,1.321,16.39,104.5806,11,12.24,16.77,0,110.4,13.13,11.79,268.1
"2016-02-14 00:27:30",1372306,13.97,298.4,5.438,0.998,14.34,104.5801,11,12.01,16.59,0,110.4,13.14,11.79,260.4
"2016-02-14 00:28:00",1372307,15.24,306.2,5.943,1.094,15.52,104.5813,11,12.18,16.97,0,110.3,13.14,11.79,268.2
"2016-02-14 00:28:30",1372308,15.44,303.4,8.3,1.213,15.87,104.5763,10.99,12.11,16.91,0,110.3,13.14,11.78,265.4
"2016-02-14 00:29:00",1372309,16.04,312.4,7.123,2.007,16.69,104.5703,10.97,12.17,16.64,0,110.4,13.14,11.76,274.4
"2016-02-14 00:29:30",1372310,15.42,308.7,9.33,1.453,16.92,104.5653,10.96,12.18,16.56,0,110.3,13.14,11.75,270.7
"2016-02-14 00:30:00",1372311,15.53,305.8,8.61,1.581,16.76,104.5686,10.97,12.17,16.8,0,110.3,13.14,11.76,267.8
"2016-02-14 00:30:30",1372312,14.55,311.2,8.97,1.539,16.16,104.5686,10.97,12.17,16.7,0,110.3,13.14,11.76,273.2
"2016-02-14 00:31:00",1372313,13.94,302.7,8.87,1.605,14.83,104.5701,10.97,12.06,16.67,0,110.3,13.14,11.76,264.7
"2016-02-14 00:31:30",1372314,15.38,309.7,6.442,1.084,15.19,104.5701,10.97,12.06,16.71,0,110.3,13.15,11.76,271.7
"2016-02-14 00:32:00",1372315,16,300.4,5.806,1.863,15.24,104.5701,10.97,12.03,16.75,0,110.3,13.15,11.76,262.4
"2016-02-14 00:32:30",1372316,19.46,309.6,7.564,1.675,17.36,104.5701,10.97,12.13,16.52,0,110.3,13.15,11.76,271.6
"2016-02-14 00:33:00",1372317,19.63,306.4,7.801,1.585,17.4,104.5701,10.97,12.13,16.31,0,110.3,13.15,11.76,268.4
"2016-02-14 00:33:30",1372318,18.27,296.6,7.047,1.986,17.93,104.5701,10.97,12.2,16.28,0,110.3,13.15,11.76,258.6
"2016-02-14 00:34:00",1372319,16.53,303.3,9.2,1.844,16.85,104.5701,10.97,12.14,16.56,0,110.3,13.15,11.76,265.3
"2016-02-14 00:34:30",1372320,15.1,297.3,7.451,1.128,15.24,104.5729,10.98,12.05,16.7,0,110.3,13.15,11.77,259.3
"2016-02-14 00:35:00",1372321,13.99,294.5,2.63,0.507,13.31,104.5737,10.98,11.93,16.57,0,110.3,13.19,11.77,256.5
"2016-02-14 00:35:30",1372322,14.94,304.3,10.33,1.482,16.4,104.5735,10.98,12.13,16.76,0,110.3,13.15,11.77,266.3
"2016-02-14 00:36:00",1372323,14.14,309.2,8.46,1.492,17.02,104.5704,10.97,12.13,16.74,0,110.3,13.15,11.76,271.2
"2016-02-14 00:36:30",1372324,14.38,304.6,7.088,1.728,16.68,104.5701,10.97,12.12,16.73,0,110.3,13.15,11.76,266.6
"2016-02-14 00:37:00",1372325,15.99,309.8,7.525,1.742,16.68,104.5701,10.97,12.16,16.71,0,110.3,13.15,11.76,271.8
"2016-02-14 00:37:30",1372326,13.97,302.7,7.715,1.242,15.09,104.5701,10.97,12.1,16.7,0,110.4,13.15,11.76,264.7
"2016-02-14 00:38:00",1372327,14.86,303.7,7.454,1.851,15.59,104.5701,10.97,12.13,16.83,0,110.3,13.15,11.76,265.7
"2016-02-14 00:38:30",1372328,15.55,305.9,8.41,1.76,15.87,104.5698,10.97,12.05,16.6,0,110.3,13.15,11.76,267.9
"2016-02-14 00:39:00",1372329,14.86,298.1,7.014,1.528,16.1,104.5661,10.96,12.12,16.77,0,110.3,13.15,11.75,260.1
"2016-02-14 00:39:30",1372330,13.16,302.7,5.631,1.4,15.54,104.5613,10.95,12.11,16.82,0,110.3,13.15,11.74,264.7
"2016-02-14 00:40:00",1372331,15.72,304,10.99,1.577,16.42,104.5571,10.94,12.1,16.68,0,110.3,13.14,11.73,266.0
"2016-02-14 00:40:30",1372332,16.48,309.3,10.58,1.833,15.47,104.5495,10.92,12.01,16.55,0,110.3,13.15,11.71,271.3
"2016-02-14 00:41:00",1372333,15.19,308,10.4,1.97,16.56,104.5427,10.9,12.13,16.44,0,110.3,13.14,11.69,270.0
"2016-02-14 00:41:30",1372334,13.27,295.6,8.93,1.507,15.39,104.5399,10.89,12.05,16.66,0,110.3,13.14,11.69,257.6
"2016-02-14 00:42:00",1372335,16.73,292.4,10.41,1.672,16.52,104.5365,10.89,12.08,16.53,0,110.3,13.15,11.68,254.4
"2016-02-14 00:42:30",1372336,16.14,304.7,11.43,1.424,16.24,104.5362,10.89,12.02,16.44,0,110.3,13.14,11.68,266.7
"2016-02-14 00:43:00",1372337,16.69,306.4,8.89,1.513,16.53,104.5365,10.89,12.1,16.38,0,110.3,13.14,11.68,268.4
"2016-02-14 00:43:30",1372338,15.22,307.9,7.18,1.321,16.07,104.538,10.89,12.05,16.39,0,110.3,13.14,11.68,269.9
"2016-02-14 00:44:00",1372339,13.37,299.8,11.15,1.755,15.9,104.5392,10.89,12.08,16.59,0,110.3,13.14,11.68,261.8
"2016-02-14 00:44:30",1372340,13.05,299.6,7.481,1.374,15.23,104.5398,10.89,12.02,16.67,0,110.3,13.15,11.68,261.6
"2016-02-14 00:45:00",1372341,11.77,295.3,7.145,1.209,15.4,104.5421,10.9,11.98,16.79,0,110.3,13.15,11.69,257.3
"2016-02-14 00:45:30",1372342,12.06,301.6,7.655,1.722,14.88,104.5448,10.91,11.97,16.79,0,110.3,13.15,11.70,263.6
"2016-02-14 00:46:00",1372343,13.41,299.5,5.747,1.286,14.94,104.5442,10.91,11.99,16.8,0,110.3,13.15,11.70,261.5
"2016-02-14 00:46:30",1372344,13.65,306.4,6.887,1.361,16.83,104.5403,10.9,12.08,16.76,0,110.3,13.15,11.69,268.4
"2016-02-14 00:47:00",1372345,11.57,306.5,7.916,1.614,15.65,104.535,10.88,11.97,16.78,0,110.3,13.15,11.67,268.5
"2016-02-14 00:47:30",1372346,10.43,302.7,10.8,1.507,16.04,104.5283,10.87,12.06,17.06,0,110.3,13.15,11.66,264.7
"2016-02-14 00:48:00",1372347,10.51,302.5,9.08,1.582,15.84,104.5156,10.83,12.06,17.05,0,110.3,13.16,11.62,264.5
"2016-02-14 00:48:30",1372348,8.84,291.7,5.484,0.951,13.74,104.515,10.83,11.85,16.65,0,110.3,13.16,11.62,253.7
"2016-02-14 00:49:00",1372349,8.84,301.4,8.16,1.378,15.1,104.518,10.84,11.94,16.86,0,110.3,13.15,11.63,263.4
"2016-02-14 00:49:30",1372350,9.06,302.8,9.01,1.348,15.02,104.5138,10.83,11.94,17.08,0,110.3,13.16,11.62,264.8
"2016-02-14 00:50:00",1372351,10,295.2,8.37,1.731,15.29,104.5046,10.8,11.97,16.91,0,110.3,13.16,11.59,257.2
"2016-02-14 00:50:30",1372352,13.09,305.4,10.25,1.784,15.98,104.4925,10.77,12.02,16.99,0,110.3,13.16,11.56,267.4
"2016-02-14 00:51:00",1372353,10.57,293.4,7.385,1.805,16.1,104.4915,10.77,11.93,16.96,0,110.3,13.16,11.56,255.4
"2016-02-14 00:51:30",1372354,11.47,297.2,7.288,1.35,14.69,104.4939,10.78,11.85,17.03,0,110.3,13.16,11.57,259.2
"2016-02-14 00:52:00",1372355,15.87,302.2,9.8,2.517,15.17,104.4916,10.77,11.87,16.78,0,110.3,13.16,11.56,264.2
"2016-02-14 00:52:30",1372356,15.3,303.8,7.862,1.681,15.6,104.486,10.76,11.96,16.78,0,110.3,13.16,11.55,265.8
"2016-02-14 00:53:00",1372357,12.57,299.7,9.23,1.628,16.61,104.4823,10.75,11.9,16.99,0,110.3,13.16,11.54,261.7
"2016-02-14 00:53:30",1372358,11.23,298.4,10.61,1.702,16.01,104.4804,10.74,11.9,17.14,0,110.3,13.16,11.53,260.4
"2016-02-14 00:54:00",1372359,10.58,300.5,6.06,1.684,15.55,104.4742,10.73,11.9,17.26,0,110.3,13.16,11.52,262.5
"2016-02-14 00:54:30",1372360,11.6,297.5,11.24,1.98,14.14,104.4668,10.71,11.75,17.15,0,110.3,13.16,11.50,259.5
"2016-02-14 00:55:00",1372361,13.33,298.3,11.87,2.324,14.69,104.468,10.71,11.81,17.19,0,110.3,13.16,11.50,260.3
"2016-02-14 00:55:30",1372362,14.41,298.6,10.27,2.338,16.1,104.4691,10.71,11.89,17.36,0,110.3,13.17,11.50,260.6
"2016-02-14 00:56:00",1372363,14.33,297.2,10.54,1.495,16.41,104.468,10.71,11.92,17.51,0,110.3,13.16,11.50,259.2
"2016-02-14 00:56:30",1372364,15.05,305.2,9.18,2.105,17.13,104.4624,10.7,11.91,17.28,0,110.3,13.15,11.49,267.2
"2016-02-14 00:57:00",1372365,16.42,301.9,9.7,2.272,15.92,104.4542,10.68,11.78,17.23,0,110.3,13.15,11.47,263.9
"2016-02-14 00:57:30",1372366,17.7,303,10.33,1.274,14.89,104.4463,10.66,11.76,17,0,110.3,13.15,11.44,265.0
"2016-02-14 00:58:00",1372367,18.9,307.3,9.13,2.218,15.75,104.4429,10.65,11.76,17.22,0,110.3,13.15,11.44,269.3
"2016-02-14 00:58:30",1372368,19.6,307.6,9.71,1.692,16.64,104.4381,10.63,11.85,17.26,0,110.3,13.15,11.42,269.6
"2016-02-14 00:59:00",1372369,18.97,306.3,8.14,2.072,16.88,104.4381,10.63,11.9,17.41,0,110.3,13.15,11.42,268.3
"2016-02-14 00:59:30",1372370,18.26,309.8,7.056,1.579,17.51,104.4364,10.63,11.86,17.33,0,110.3,13.15,11.42,271.8
"2016-02-14 01:00:00",1372371,16.77,303.4,7.798,1.686,16.93,104.4362,10.63,11.89,17.43,0,110.3,13.15,11.42,265.4
"2016-02-14 01:00:30",1372372,17.68,303,8.18,1.615,15.69,104.4362,10.63,11.82,17.41,0,110.3,13.15,11.42,265.0
"2016-02-14 01:01:00",1372373,17.24,303,8.38,1.573,15.2,104.4362,10.63,11.69,17.13,0,110.3,13.15,11.42,265.0
"2016-02-14 01:01:30",1372374,16.59,300.9,6.09,1.226,14.37,104.4362,10.63,11.69,17.19,0,110.3,13.16,11.42,262.9
"2016-02-14 01:02:00",1372375,18.22,302,7.26,1.974,15.44,104.4362,10.63,11.75,17.3,0,110.3,13.16,11.42,264.0
"2016-02-14 01:02:30",1372376,19.41,306,7.323,1.804,17,104.4362,10.63,11.82,17.44,0,110.3,13.16,11.42,268.0
"2016-02-14 01:03:00",1372377,18.48,307.2,8.15,1.727,17.18,104.4362,10.63,11.87,17.25,0,110.3,13.16,11.42,269.2
"2016-02-14 01:03:30",1372378,20.51,306.8,8.03,1.823,17.52,104.4362,10.63,11.85,17.41,0,110.3,13.17,11.42,268.8
"2016-02-14 01:04:00",1372379,20.39,308.1,7.063,1.75,17.38,104.4362,10.63,11.86,17.3,0,110.3,13.16,11.42,270.1
"2016-02-14 01:04:30",1372380,22.56,311,7.646,2.144,17.2,104.4362,10.63,11.85,17.17,0,110.3,13.16,11.42,273.0
"2016-02-14 01:05:00",1372381,22.72,310.7,7.871,1.578,17.47,104.4362,10.63,11.86,17.03,0,110.3,13.16,11.42,272.7
"2016-02-14 01:05:30",1372382,22.64,308,7.26,2.076,17.31,104.4362,10.63,11.86,16.99,0,110.3,13.16,11.42,270.0
"2016-02-14 01:06:00",1372383,24.87,310.4,6.744,2.088,17.04,104.4393,10.64,11.83,16.58,0,110.3,13.16,11.43,272.4
"2016-02-14 01:06:30",1372384,24.93,310.8,6.456,1.82,17.43,104.461,10.69,11.85,16.16,0,110.3,13.16,11.48,272.8
"2016-02-14 01:07:00",1372385,24.62,310.5,6.794,1.711,17.64,104.47,10.72,11.89,16.51,0,110.3,13.16,11.51,272.5
"2016-02-14 01:07:30",1372386,22.96,311.8,7.683,1.565,17.17,104.4712,10.72,11.91,16.74,0,110.3,13.16,11.51,273.8
"2016-02-14 01:08:00",1372387,24.26,308.8,6.738,1.681,17.35,104.4847,10.75,11.93,16.67,0,110.3,13.16,11.54,270.8
"2016-02-14 01:08:30",1372388,25.22,309.3,7.128,1.301,17.12,104.4974,10.79,11.92,16.46,0,110.3,13.16,11.58,271.3
"2016-02-14 01:09:00",1372389,23.77,309.1,7.553,1.604,17.39,104.5039,10.8,11.94,16.5,0,110.3,13.16,11.59,271.1
"2016-02-14 01:09:30",1372390,26.11,311.1,6.722,1.5,17.77,104.5039,10.8,11.98,15.96,0,110.2,13.16,11.59,273.1
"2016-02-14 01:10:00",1372391,24.93,310.3,6.545,1.677,17.31,104.5191,10.84,11.99,15.81,0,110.3,13.16,11.63,272.3
"2016-02-14 01:10:30",1372392,25.42,311.7,6.782,1.631,17.49,104.5349,10.88,12.02,16.33,0,110.3,13.16,11.67,273.7
"2016-02-14 01:11:00",1372393,25.78,312.3,6.384,1.501,17.1,104.5378,10.89,12.02,16.54,0,110.3,13.16,11.68,274.3
"2016-02-14 01:11:30",1372394,25.33,310.5,6.829,1.618,17.18,104.538,10.89,12.03,16.71,0,110.3,13.16,11.68,272.5
"2016-02-14 01:12:00",1372395,25.46,309.9,6.641,1.425,17.58,104.538,10.89,12.05,16.56,0,110.3,13.16,11.68,271.9
"2016-02-14 01:12:30",1372396,25.87,309.8,6.601,1.609,17.5,104.5471,10.91,12.08,16.15,0,110.3,13.16,11.70,271.8
"2016-02-14 01:13:00",1372397,25.52,309.1,7.026,1.531,17.54,104.5567,10.94,12.1,16.27,0,110.3,13.16,11.73,271.1
"2016-02-14 01:13:30",1372398,25.13,310.3,6.676,1.402,17.17,104.5666,10.96,12.1,16.32,0,110.3,13.15,11.75,272.3
"2016-02-14 01:14:00",1372399,25.13,311,7.309,1.549,17.72,104.5719,10.98,12.12,15.57,0,110.2,13.15,11.77,273.0
"2016-02-14 01:14:30",1372400,24.19,309.4,6.9,1.474,17.6,104.5716,10.98,12.12,15.11,0,110.2,13.15,11.77,271.4
"2016-02-14 01:15:00",1372401,22.86,308.9,6.866,1.769,17.26,104.5739,10.98,12.18,16.09,0,110.2,13.15,11.77,270.9
"2016-02-14 01:15:30",1372402,22.44,311.3,7.014,1.602,17.17,104.5759,10.99,12.17,16.26,0,110.3,13.15,11.78,273.3
"2016-02-14 01:16:00",1372403,23.57,311,6.976,1.357,17.05,104.5742,10.98,12.17,16.36,0,110.3,13.15,11.77,273.0
"2016-02-14 01:16:30",1372404,24.54,312,6.849,1.322,17.5,104.5725,10.98,12.19,15.46,0,110.3,13.15,11.77,274.0
"2016-02-14 01:17:00",1372405,23.91,311.9,7.175,1.329,17.62,104.5728,10.98,12.18,15.44,0,110.3,13.15,11.77,273.9
"2016-02-14 01:17:30",1372406,24.62,315.7,6.353,1.357,17.69,104.5809,11,12.18,14.5,0,110.2,13.15,11.79,277.7
"2016-02-14 01:18:00",1372407,24.32,314.8,6.695,1.333,17.49,104.5924,11.03,12.2,14.17,0,110.3,13.15,11.82,276.8
"2016-02-14 01:18:30",1372408,22.89,315.3,6.964,1.501,17.25,104.607,11.07,12.22,14.66,0,110.2,13.16,11.86,277.3
"2016-02-14 01:19:00",1372409,23.71,314.8,6.672,1.319,17.73,104.609,11.07,12.23,15.31,0,110.3,13.16,11.86,276.8
"2016-02-14 01:19:30",1372410,23.42,314.6,6.631,1.335,17.58,104.6084,11.07,12.26,15.17,0,110.3,13.16,11.86,276.6
"2016-02-14 01:20:00",1372411,24.96,315,6.97,1.288,17.52,104.6084,11.07,12.25,15,0,110.3,13.16,11.86,277.0
"2016-02-14 01:20:30",1372412,24.21,313,6.623,1.26,17.42,104.6078,11.07,12.24,14.97,0,110.3,13.16,11.86,275.0
"2016-02-14 01:21:00",1372413,23.8,314,6.56,1.379,17.4,104.6105,11.08,12.25,15.57,0,110.3,13.16,11.87,276.0
"2016-02-14 01:21:30",1372414,23.81,316.1,6.804,1.304,17.79,104.612,11.08,12.24,14.89,0,110.2,13.16,11.87,278.1
"2016-02-14 01:22:00",1372415,23.84,318.2,6.571,1.424,18.09,104.614,11.08,12.28,14.14,0,110.3,13.16,11.88,280.2
"2016-02-14 01:22:30",1372416,25.61,316.2,6.336,1.221,18.07,104.6292,11.12,12.31,13.71,0,110.3,13.16,11.91,278.2
"2016-02-14 01:23:00",1372417,24.61,315.6,7.029,1.312,17.33,104.6453,11.16,12.28,14.09,0,110.2,13.16,11.96,277.6
"2016-02-14 01:23:30",1372418,24.28,316.6,6.647,1.322,17.72,104.6491,11.17,12.33,14.36,0,110.2,13.16,11.97,278.6
"2016-02-14 01:24:00",1372419,23.35,314.6,6.961,1.465,17.96,104.6537,11.19,12.35,14.12,0,110.3,13.16,11.98,276.6
"2016-02-14 01:24:30",1372420,22.58,316.2,6.323,1.493,17.61,104.6666,11.22,12.36,14.38,0,110.3,13.16,12.01,278.2
"2016-02-14 01:25:00",1372421,22.73,315.5,6.691,1.497,17.82,104.6736,11.24,12.36,14.49,0,110.3,13.16,12.03,277.5
"2016-02-14 01:25:30",1372422,21.86,315.6,6.779,1.645,17.48,104.6824,11.26,12.4,14.37,0,110.3,13.16,12.05,277.6
"2016-02-14 01:26:00",1372423,21.66,311.9,6.547,1.466,17.31,104.6836,11.26,12.38,14.83,0,110.3,13.16,12.05,273.9
"2016-02-14 01:26:30",1372424,22.7,311.3,6.841,1.317,17.66,104.6853,11.27,12.41,15.11,0,110.3,13.16,12.06,273.3
"2016-02-14 01:27:00",1372425,21.58,311.8,6.487,1.272,17.34,104.681,11.26,12.43,14.6,0,110.3,13.16,12.05,273.8
"2016-02-14 01:27:30",1372426,21.61,313.3,7.199,1.388,17.59,104.6787,11.25,12.42,14.55,0,110.2,13.16,12.04,275.3
"2016-02-14 01:28:00",1372427,22.19,314.5,7.038,1.388,17.62,104.675,11.24,12.44,14.31,0,110.3,13.16,12.03,276.5
"2016-02-14 01:28:30",1372428,21.18,315.2,6.309,1.232,17.35,104.6748,11.24,12.43,14.18,0,110.3,13.16,12.03,277.2
"2016-02-14 01:29:00",1372429,21.48,314.5,7.276,1.357,17.69,104.6746,11.24,12.44,14.34,0,110.3,13.16,12.03,276.5
"2016-02-14 01:29:30",1372430,21.06,318,6.807,1.628,17.44,104.6726,11.23,12.45,14.58,0,110.3,13.16,12.03,280.0
"2016-02-14 01:30:00",1372431,22.81,317.1,7.039,1.426,17.32,104.6716,11.23,12.41,14.21,0,110.2,13.16,12.02,279.1
"2016-02-14 01:30:30",1372432,20.48,314.4,7.897,1.509,17.23,104.6684,11.22,12.41,14.43,0,110.3,13.16,12.02,276.4
"2016-02-14 01:31:00",1372433,20.95,315.1,6.168,1.498,17.69,104.6672,11.22,12.43,14.51,0,110.3,13.16,12.01,277.1
"2016-02-14 01:31:30",1372434,21.2,314.1,6.648,1.434,17.49,104.6593,11.2,12.43,14.42,0,110.3,13.16,11.99,276.1
"2016-02-14 01:32:00",1372435,21.59,314.1,6.759,1.288,17.57,104.6534,11.19,12.45,14.31,0,110.3,13.16,11.98,276.1
"2016-02-14 01:32:30",1372436,22.34,315.1,6.719,1.38,17.36,104.6511,11.18,12.42,14.35,0,110.3,13.16,11.97,277.1
"2016-02-14 01:33:00",1372437,22.08,315.3,6.857,1.415,17.58,104.6512,11.18,12.41,14.34,0,110.3,13.16,11.97,277.3
"2016-02-14 01:33:30",1372438,21.42,314.4,6.769,1.337,17.72,104.6523,11.18,12.42,14.35,0,110.2,13.16,11.97,276.4
"2016-02-14 01:34:00",1372439,22.15,312.2,6.607,1.754,17.65,104.6532,11.18,12.41,14.16,0,110.3,13.16,11.98,274.2
"2016-02-14 01:34:30",1372440,21.51,317.5,6.619,1.171,17.61,104.6532,11.18,12.42,14.28,0,110.3,13.16,11.98,279.5
"2016-02-14 01:35:00",1372441,22.61,316.1,6.346,1.246,17.44,104.6544,11.19,12.41,14.35,0,110.3,13.16,11.98,278.1
"2016-02-14 01:35:30",1372442,23.12,316.4,7.189,1.496,17.09,104.6572,11.2,12.4,14.39,0,110.3,13.16,11.99,278.4
"2016-02-14 01:36:00",1372443,23.37,315.4,6.726,1.425,17.79,104.6564,11.19,12.41,14.38,0,110.3,13.16,11.98,277.4
"2016-02-14 01:36:30",1372444,22.88,316.4,6.545,1.48,17.48,104.6561,11.19,12.45,14.47,0,110.3,13.16,11.98,278.4
"2016-02-14 01:37:00",1372445,22.32,314.4,6.723,1.744,17.53,104.655,11.19,12.41,14.45,0,110.3,13.16,11.98,276.4
"2016-02-14 01:37:30",1372446,22.15,316.7,6.4,1.615,17.25,104.6547,11.19,12.41,14.46,0,110.3,13.16,11.98,278.7
"2016-02-14 01:38:00",1372447,23.81,318.2,7.235,1.82,17.56,104.6535,11.19,12.41,14.18,0,110.3,13.16,11.98,280.2
"2016-02-14 01:38:30",1372448,22.53,314.6,6.986,1.503,17.54,104.6541,11.19,12.39,14.29,0,110.3,13.16,11.98,276.6
"2016-02-14 01:39:00",1372449,22.58,314.7,7.333,2.126,17.5,104.6547,11.19,12.42,14.4,0,110.3,13.17,11.98,276.7
"2016-02-14 01:39:30",1372450,24.44,317.6,6.711,1.407,17.78,104.6523,11.18,12.39,14.13,0,110.3,13.16,11.97,279.6
"2016-02-14 01:40:00",1372451,23.46,316.7,6.787,1.93,17.49,104.6553,11.19,12.42,14.2,0,110.3,13.16,11.98,278.7
"2016-02-14 01:40:30",1372452,24.79,319,7.016,1.951,17.41,104.6529,11.18,12.41,14.27,0,110.3,13.16,11.98,281.0
"2016-02-14 01:41:00",1372453,25.01,319.2,7.462,1.706,17.8,104.6559,11.19,12.39,14.48,0,110.3,13.16,11.98,281.2
"2016-02-14 01:41:30",1372454,25.38,320.5,6.434,1.329,17.6,104.6547,11.19,12.39,14.67,0,110.3,13.16,11.98,282.5
"2016-02-14 01:42:00",1372455,26.26,317.9,6.921,1.388,17.58,104.6565,11.19,12.39,14.64,0,110.3,13.16,11.98,279.9
"2016-02-14 01:42:30",1372456,25.23,314.3,6.68,1.62,17.56,104.6562,11.19,12.41,14.57,0,110.3,13.16,11.98,276.3
"2016-02-14 01:43:00",1372457,26.44,314.9,6.731,1.344,17.83,104.6599,11.2,12.41,15.02,0,110.3,13.17,11.99,276.9
"2016-02-14 01:43:30",1372458,26.24,317.3,6.904,1.489,17.85,104.6649,11.21,12.44,14.75,0,110.3,13.16,12.01,279.3
"2016-02-14 01:44:00",1372459,25.86,316.3,6.447,1.417,17.62,104.6746,11.24,12.44,14.78,0,110.3,13.16,12.03,278.3
"2016-02-14 01:44:30",1372460,26.45,316.6,6.492,1.389,17.66,104.6803,11.25,12.42,14.34,0,110.3,13.17,12.05,278.6
"2016-02-14 01:45:00",1372461,25.99,316.4,7.005,1.417,17.72,104.6902,11.28,12.42,14.25,0,110.3,13.16,12.07,278.4
"2016-02-14 01:45:30",1372462,24.2,317.7,7.079,1.788,17.67,104.6921,11.28,12.42,14.3,0,110.3,13.17,12.08,279.7
"2016-02-14 01:46:00",1372463,23.38,316.7,6.803,1.438,17.71,104.6912,11.28,12.47,14.76,0,110.3,13.16,12.07,278.7
"2016-02-14 01:46:30",1372464,24.88,316.5,5.86,1.453,17.73,104.6912,11.28,12.49,14.88,0,110.3,13.16,12.07,278.5
"2016-02-14 01:47:00",1372465,24.91,311,7.018,1.62,17.28,104.6912,11.28,12.45,14.87,0,110.3,13.16,12.07,273.0